Location: Caltech
(34.1382°N, 118.1253°W)
Time: 23:33:19
(UTC-07:00)

SL-8 R/B - Visible Passes

Search period start: 01 August 2014 00:00
Search period end: 11 August 2014 00:00
Orbit: 358 x 371 km, 98.1° (Epoch: 31 July)

Date Brightness Start Highest point End Pass type
(mag) Time Alt. Az. Time Alt. Az. Time Alt. Az.
01 Aug 4.9 03:40:20 10° NNE 03:41:54 24° NE 03:41:54 24° NE visible
02 Aug 3.5 04:09:59 10° N 04:12:02 40° N 04:12:02 40° N visible
03 Aug 4.3 04:40:16 10° NNW 04:42:04 20° WNW 04:42:04 20° WNW visible
04 Aug 5.2 03:38:45 10° NE 03:40:05 20° ENE 03:40:05 20° ENE visible
05 Aug 3.8 04:07:57 10° N 04:09:52 38° N 04:09:52 38° N visible
06 Aug 4.2 04:37:45 10° NNW 04:39:31 22° NW 04:39:31 22° NW visible
07 Aug 5.5 03:36:11 10° NE 03:37:13 17° ENE 03:37:13 17° ENE visible
08 Aug 4.1 04:04:53 10° NNE 04:06:38 33° NNE 04:06:38 33° NNE visible
09 Aug 4.1 04:34:10 10° N 04:35:55 25° NW 04:35:55 25° NW visible
10 Aug 5.8 03:32:38 10° NE 03:33:16 14° ENE 03:33:16 14° ENE visible
10 Aug 4.9 05:04:35 10° NW 05:05:05 11° WNW 05:05:05 11° WNW visible
